This demonstration page uses our WeatherBlox Daily Observations layout. Learn more.

Left ArrowRight Arrow

Hourly Observations for January 11, 2017

Temp ( °F °C ) Dew Point ( °F °C ) Humidity (%) Winds ( mph kmh ) Pressure ( in mb ) Visibility ( mi km ) Precip ( " mm )
12:18 am 00:18 Mostly Cloudy 45 7.2 43 6.1 93 93 S 14 22 30.36 1028 9 14 0.00 0.00
12:59 am 00:59 Mostly Cloudy with Mist and Fog 45 7.2 44 6.7 97 97 S 13 20 30.31 1026 5 8 0.00 0.00
1:06 am 01:06 Mostly Cloudy with Mist and Fog 45 7.2 44 6.7 97 97 S 12 19 30.30 1026 6 10 0.00 0.00
1:51 am 01:51 Mostly Cloudy 47 8.3 44 6.7 90 90 S 14 22 30.30 1026 10 16 0.00 0.00
1:59 am 01:59 Mostly Cloudy 47 8.3 44 6.7 90 90 SSW 14 22 30.31 1026 10 16 0.00 0.00
2:59 am 02:59 Cloudy with Light Rain 44 6.7 42 5.6 93 93 SW 6 9 30.37 1028 9 14 0.00 0.03
3:59 am 03:59 Cloudy with Light Rain 45 7.2 44 6.7 97 97 SW 5 7 30.37 1029 5 8 0.03 0.76
4:59 am 04:59 Cloudy 46 7.8 45 7.2 96 96 S 6 9 30.37 1029 8 13 0.02 0.51
5:59 am 05:59 Mostly Cloudy with Mist and Fog 46 7.8 44 6.7 93 93 SSW 6 9 30.37 1029 6 10 0.00 0.00
6:59 am 06:59 Partly Cloudy 46 7.8 44 6.7 93 93 SW 7 11 30.39 1029 7 11 0.00 0.00
7:59 am 07:59 Mostly Cloudy 47 8.3 45 7.2 93 93 SSW 10 17 30.40 1029 7 11 0.00 0.00
8:59 am 08:59 Partly Cloudy 49 9.4 46 7.8 90 90 SW 9 15 30.42 1030 8 13 0.00 0.00
9:59 am 09:59 Partly Cloudy 51 10.6 46 7.8 83 83 SW 13 20 30.43 1031 10 16 0.00 0.00
10:59 am 10:59 Mostly Cloudy 55 12.8 47 8.3 74 74 WSW 7 11 30.42 1030 10 16 0.00 0.00
11:59 am 11:59 Mostly Cloudy 58 14.4 48 8.9 70 70 SW 7 11 30.38 1029 10 16 0.00 0.00
12:59 pm 12:59 Mostly Cloudy 58 14.4 48 8.9 70 70 WSW 8 13 30.37 1028 10 16 0.00 0.00
1:59 pm 13:59 Mostly Cloudy 58 14.4 48 8.9 70 70 SSW 9 15 30.35 1028 10 16 0.00 0.00
2:59 pm 14:59 Mostly Cloudy 57 13.9 49 9.4 74 74 SW 9 15 30.34 1028 10 16 0.00 0.00
3:59 pm 15:59 Mostly Cloudy 57 13.9 49 9.4 74 74 S 5 7 30.33 1027 10 16 0.00 0.00
4:59 pm 16:59 Mostly Cloudy 56 13.3 48 8.9 75 75 S 8 13 30.33 1027 10 16 0.00 0.00
5:59 pm 17:59 Partly Cloudy 53 11.7 49 9.4 86 86 S 7 11 30.35 1028 10 16 0.00 0.00
6:59 pm 18:59 Partly Cloudy 53 11.7 49 9.4 86 86 S 6 9 30.34 1028 10 16 0.00 0.00
7:59 pm 19:59 Mostly Cloudy 54 12.2 49 9.4 83 83 S 8 13 30.34 1028 10 16 0.00 0.00
8:59 pm 20:59 Cloudy 54 12.2 49 9.4 83 83 S 7 11 30.35 1028 10 16 0.00 0.00
9:59 pm 21:59 Mostly Cloudy 54 12.2 49 9.4 83 83 S 10 17 30.34 1027 10 16 0.00 0.00
10:59 pm 22:59 Partly Cloudy 55 12.8 50 10 83 83 S 8 13 30.33 1027 10 16 0.00 0.00
11:59 pm 23:59 Mostly Cloudy 54 12.2 51 10.6 90 90 SSW 7 11 30.32 1027 10 16 0.00 0.00

Powered by AerisWeather